FNG100 EFTU-EFTU

Flight info

Callsign FNG100
Flight time 2h 43m
Altitude 2500
Route NOUSU UUSIKAUPUNKI RAUMA NOUSU
Aircraft A119/L-SDFZ/C

Departure

Time 2026-04-28 11:33
Airport Turku Airport (EFTU)

Arrival

Time 2026-04-28 14:16
Airport Turku Airport (EFTU)
Time Latitude Longitude Altitude Speed Heading
2026-04-28 10:54 60.51216 22.28508 151 ft 0 kts 283°
2026-04-28 11:31 60.51217 22.28444 176 ft 10 kts 279°
2026-04-28 11:32 60.51236 22.28210 207 ft 22 kts 279°
2026-04-28 11:32 60.51328 22.27645 321 ft 65 kts 300°
2026-04-28 11:32 60.51577 22.26759 483 ft 78 kts 310°
2026-04-28 11:32 60.51948 22.25906 557 ft 81 kts 317°
2026-04-28 11:33 60.52328 22.25135 690 ft 73 kts 320°
2026-04-28 11:33 60.52690 22.24424 731 ft 84 kts 324°
2026-04-28 11:33 60.53202 22.23483 770 ft 109 kts 321°
2026-04-28 11:33 60.53710 22.22486 796 ft 93 kts 325°
2026-04-28 11:34 60.54194 22.21561 790 ft 98 kts 325°
2026-04-28 11:34 60.54718 22.20582 795 ft 105 kts 324°
2026-04-28 11:34 60.55233 22.19605 785 ft 98 kts 324°
2026-04-28 11:34 60.55724 22.18683 793 ft 94 kts 326°
2026-04-28 11:35 60.56200 22.17797 794 ft 92 kts 327°
2026-04-28 11:35 60.56678 22.16919 796 ft 93 kts 327°
2026-04-28 11:35 60.57182 22.16004 801 ft 97 kts 325°
2026-04-28 11:35 60.57684 22.15081 804 ft 98 kts 324°
2026-04-28 11:36 60.58180 22.14166 802 ft 94 kts 325°
2026-04-28 11:36 60.58669 22.13272 797 ft 95 kts 326°
2026-04-28 11:36 60.59191 22.12338 803 ft 101 kts 324°
2026-04-28 11:36 60.59715 22.11390 804 ft 100 kts 324°
2026-04-28 11:37 60.60231 22.10451 801 ft 98 kts 323°
2026-04-28 11:37 60.60753 22.09509 811 ft 99 kts 324°
2026-04-28 11:37 60.61248 22.08605 807 ft 94 kts 324°
2026-04-28 11:37 60.61756 22.07687 808 ft 100 kts 323°
2026-04-28 11:38 60.62270 22.06749 823 ft 94 kts 324°
2026-04-28 11:38 60.62762 22.05836 812 ft 101 kts 321°
2026-04-28 11:38 60.63130 22.04598 820 ft 102 kts 306°
2026-04-28 11:38 60.63419 22.03317 940 ft 97 kts 307°
2026-04-28 11:39 60.63691 22.02094 1070 ft 94 kts 307°
2026-04-28 11:39 60.63956 22.00900 1200 ft 92 kts 307°
2026-04-28 11:39 60.64220 21.99717 1356 ft 92 kts 306°
2026-04-28 11:39 60.64483 21.98535 1526 ft 91 kts 306°
2026-04-28 11:40 60.64742 21.97361 1688 ft 90 kts 307°
2026-04-28 11:40 60.65000 21.96196 1854 ft 89 kts 308°
2026-04-28 11:40 60.65256 21.95039 2018 ft 90 kts 307°
2026-04-28 11:40 60.65514 21.93866 2179 ft 90 kts 307°
2026-04-28 11:41 60.65776 21.92679 2345 ft 93 kts 307°
2026-04-28 11:41 60.66041 21.91470 2510 ft 93 kts 307°
2026-04-28 11:41 60.66305 21.90254 2540 ft 95 kts 306°
2026-04-28 11:41 60.66579 21.88989 2537 ft 100 kts 306°
2026-04-28 11:42 60.66865 21.87668 2537 ft 103 kts 306°
2026-04-28 11:42 60.67149 21.86343 2536 ft 101 kts 307°
2026-04-28 11:42 60.67433 21.85034 2540 ft 103 kts 306°
2026-04-28 11:42 60.67721 21.83695 2544 ft 103 kts 306°
2026-04-28 11:43 60.68011 21.82353 2546 ft 104 kts 306°
2026-04-28 11:43 60.68300 21.81009 2549 ft 103 kts 306°
2026-04-28 11:43 60.68590 21.79663 2551 ft 103 kts 305°
2026-04-28 11:43 60.68901 21.78268 2553 ft 111 kts 304°
2026-04-28 11:44 60.69205 21.76850 2551 ft 108 kts 306°
2026-04-28 11:44 60.69509 21.75447 2555 ft 108 kts 306°
2026-04-28 11:44 60.69811 21.74045 2577 ft 107 kts 305°
2026-04-28 11:44 60.70109 21.72668 2579 ft 107 kts 306°
2026-04-28 11:45 60.70410 21.71275 2585 ft 107 kts 305°
2026-04-28 11:45 60.70710 21.69885 2586 ft 106 kts 305°
2026-04-28 11:45 60.71011 21.68491 2587 ft 108 kts 305°
2026-04-28 11:45 60.71313 21.67090 2592 ft 108 kts 305°
2026-04-28 11:46 60.71618 21.65675 2591 ft 109 kts 305°
2026-04-28 11:46 60.71925 21.64252 2592 ft 109 kts 306°
2026-04-28 11:46 60.72231 21.62825 2557 ft 110 kts 308°
2026-04-28 11:46 60.72544 21.61377 2578 ft 111 kts 307°
2026-04-28 11:47 60.72856 21.59925 2590 ft 111 kts 307°
2026-04-28 11:47 60.73165 21.58487 2591 ft 110 kts 308°
2026-04-28 11:47 60.73631 21.57376 2592 ft 100 kts 338°
2026-04-28 11:47 60.74288 21.57172 2590 ft 96 kts
2026-04-28 11:48 60.74957 21.57238 2590 ft 96 kts
2026-04-28 11:48 60.75624 21.57304 2590 ft 96 kts
2026-04-28 11:48 60.76294 21.57358 2593 ft 97 kts
2026-04-28 11:48 60.76961 21.57401 2595 ft 95 kts
2026-04-28 11:49 60.77615 21.57435 2587 ft 96 kts
2026-04-28 11:49 60.78283 21.57463 2591 ft 96 kts 360°
2026-04-28 11:49 60.78942 21.57486 2596 ft 95 kts
2026-04-28 11:49 60.79608 21.57505 2593 ft 96 kts
2026-04-28 11:50 60.80270 21.57519 2582 ft 96 kts
2026-04-28 11:50 60.80932 21.57529 2581 ft 97 kts
2026-04-28 11:50 60.81599 21.57538 2585 ft 95 kts
2026-04-28 11:50 60.82257 21.57544 2603 ft 96 kts
2026-04-28 11:51 60.82921 21.57550 2604 ft 96 kts
2026-04-28 11:51 60.83587 21.57554 2603 ft 95 kts
2026-04-28 11:51 60.84247 21.57559 2606 ft 95 kts
2026-04-28 11:51 60.84922 21.57562 2603 ft 97 kts
2026-04-28 11:52 60.85595 21.57563 2610 ft 95 kts 359°
2026-04-28 11:52 60.86263 21.57563 2605 ft 97 kts
2026-04-28 11:52 60.86933 21.57561 2600 ft 95 kts
2026-04-28 11:52 60.87588 21.57563 2602 ft 94 kts
2026-04-28 11:53 60.88241 21.57566 2595 ft 95 kts
2026-04-28 11:53 60.88898 21.57566 2602 ft 94 kts 360°
2026-04-28 11:53 60.89562 21.57570 2602 ft 94 kts 360°
2026-04-28 11:53 60.90226 21.57571 2600 ft 96 kts
2026-04-28 11:54 60.90897 21.57570 2606 ft 96 kts 360°
2026-04-28 11:54 60.91559 21.57571 2598 ft 95 kts
2026-04-28 11:54 60.92219 21.57571 2599 ft 94 kts
2026-04-28 11:54 60.92873 21.57572 2595 ft 94 kts
2026-04-28 11:55 60.93528 21.57574 2601 ft 94 kts
2026-04-28 11:55 60.94183 21.57574 2603 ft 93 kts 360°
2026-04-28 11:55 60.94845 21.57576 2600 ft 95 kts
2026-04-28 11:55 60.95506 21.57576 2597 ft 95 kts 360°
2026-04-28 11:56 60.96164 21.57575 2596 ft 94 kts 360°
2026-04-28 11:56 60.96827 21.57576 2597 ft 95 kts 359°
2026-04-28 11:56 60.97479 21.57575 2595 ft 94 kts 359°
2026-04-28 11:56 60.98126 21.57577 2599 ft 92 kts 360°
2026-04-28 11:57 60.98774 21.57578 2598 ft 93 kts 359°
2026-04-28 11:57 60.99415 21.57578 2595 ft 93 kts 359°
2026-04-28 11:57 61.00067 21.57579 2594 ft 94 kts 359°
2026-04-28 11:57 61.00716 21.57580 2598 ft 92 kts 359°
2026-04-28 11:58 61.01364 21.57578 2595 ft 94 kts 359°
2026-04-28 11:58 61.02029 21.57578 2597 ft 95 kts 359°
2026-04-28 11:58 61.02693 21.57576 2598 ft 96 kts 359°
2026-04-28 11:58 61.03359 21.57575 2596 ft 95 kts 359°
2026-04-28 11:59 61.04025 21.57574 2591 ft 96 kts 360°
2026-04-28 11:59 61.04689 21.57576 2590 ft 95 kts
2026-04-28 11:59 61.05348 21.57577 2597 ft 95 kts
2026-04-28 11:59 61.06009 21.57576 2597 ft 95 kts
2026-04-28 12:00 61.06672 21.57577 2595 ft 96 kts
2026-04-28 12:00 61.07334 21.57578 2600 ft 94 kts
2026-04-28 12:00 61.07990 21.57575 2595 ft 95 kts
2026-04-28 12:00 61.08656 21.57575 2594 ft 96 kts
2026-04-28 12:01 61.09328 21.57576 2598 ft 95 kts
2026-04-28 12:01 61.09992 21.57576 2594 ft 96 kts
2026-04-28 12:01 61.10655 21.57576 2595 ft 95 kts
2026-04-28 12:01 61.11300 21.57577 2601 ft 93 kts
2026-04-28 12:02 61.11945 21.57580 2600 ft 92 kts
2026-04-28 12:02 61.12592 21.57581 2587 ft 94 kts
2026-04-28 12:02 61.13243 21.57580 2590 ft 94 kts
2026-04-28 12:02 61.13905 21.57581 2598 ft 96 kts
2026-04-28 12:03 61.14576 21.57580 2607 ft 96 kts
2026-04-28 12:03 61.15247 21.57582 2608 ft 96 kts
2026-04-28 12:03 61.15909 21.57582 2613 ft 94 kts 359°
2026-04-28 12:03 61.16563 21.57582 2611 ft 93 kts 360°
2026-04-28 12:04 61.17212 21.57583 2595 ft 93 kts 360°
2026-04-28 12:04 61.17861 21.57581 2590 ft 94 kts 360°
2026-04-28 12:04 61.18523 21.57581 2588 ft 96 kts 359°
2026-04-28 12:04 61.19181 21.57579 2597 ft 97 kts 359°
2026-04-28 12:05 61.19854 21.57576 2588 ft 96 kts 359°
2026-04-28 12:05 61.20526 21.57568 2585 ft 98 kts 358°
2026-04-28 12:05 61.21156 21.57017 2585 ft 104 kts 327°
2026-04-28 12:05 61.21503 21.55621 2615 ft 118 kts 295°
2026-04-28 12:06 61.21458 21.53807 2610 ft 130 kts 277°
2026-04-28 12:06 61.21313 21.51947 2605 ft 131 kts 276°
2026-04-28 12:06 61.21183 21.50094 2604 ft 131 kts 275°
2026-04-28 12:06 61.20775 21.48307 2608 ft 147 kts 243°
2026-04-28 12:07 61.19928 21.47009 2607 ft 157 kts 210°
2026-04-28 12:07 61.18844 21.46610 2605 ft 161 kts 177°
2026-04-28 12:07 61.17766 21.47091 2609 ft 158 kts 159°
2026-04-28 12:07 61.16704 21.47714 2618 ft 159 kts 162°
2026-04-28 12:08 61.15982 21.48055 2616 ft 160 kts 165°
2026-04-28 12:08 61.14876 21.48431 2612 ft 162 kts 170°
2026-04-28 12:08 61.13748 21.48681 2615 ft 163 kts 173°
2026-04-28 12:08 61.12245 21.48877 2614 ft 163 kts 176°
2026-04-28 12:09 61.11478 21.48938 2608 ft 162 kts 177°
2026-04-28 12:09 61.10340 21.48997 2609 ft 165 kts 178°
2026-04-28 12:09 61.09193 21.49033 2609 ft 165 kts 179°
2026-04-28 12:09 61.08042 21.49054 2611 ft 165 kts 180°
2026-04-28 12:10 61.06893 21.49068 2609 ft 166 kts 180°
2026-04-28 12:10 61.05741 21.49076 2607 ft 165 kts 180°
2026-04-28 12:10 61.04595 21.49081 2603 ft 165 kts 180°
2026-04-28 12:10 61.03449 21.49084 2599 ft 165 kts 180°
2026-04-28 12:11 61.02319 21.49087 2601 ft 164 kts 180°
2026-04-28 12:11 61.01181 21.49087 2601 ft 163 kts 180°
2026-04-28 12:11 61.00045 21.49087 2601 ft 164 kts 180°
2026-04-28 12:11 60.98910 21.49087 2603 ft 162 kts 180°
2026-04-28 12:12 60.97781 21.49085 2597 ft 163 kts 180°
2026-04-28 12:12 60.96642 21.49083 2597 ft 163 kts 180°
2026-04-28 12:12 60.95512 21.49084 2598 ft 163 kts 180°
2026-04-28 12:12 60.94372 21.49085 2598 ft 164 kts 180°
2026-04-28 12:13 60.93229 21.49086 2599 ft 165 kts 180°
2026-04-28 12:13 60.92082 21.49088 2602 ft 164 kts 180°
2026-04-28 12:13 60.90954 21.49088 2605 ft 163 kts 180°
2026-04-28 12:13 60.89816 21.49087 2599 ft 164 kts 180°
2026-04-28 12:14 60.88671 21.49088 2599 ft 165 kts 179°
2026-04-28 12:14 60.87526 21.49089 2599 ft 165 kts 180°
2026-04-28 12:14 60.86375 21.49087 2598 ft 166 kts 180°
2026-04-28 12:14 60.85217 21.49087 2603 ft 167 kts 179°
2026-04-28 12:15 60.84061 21.49087 2600 ft 166 kts 180°
2026-04-28 12:15 60.82918 21.49088 2601 ft 166 kts 180°
2026-04-28 12:15 60.81750 21.49088 2604 ft 166 kts 179°
2026-04-28 12:15 60.80598 21.49088 2602 ft 166 kts 179°
2026-04-28 12:16 60.79444 21.49089 2602 ft 165 kts 179°
2026-04-28 12:16 60.78297 21.49089 2609 ft 165 kts 180°
2026-04-28 12:16 60.77152 21.49089 2613 ft 164 kts 180°
2026-04-28 12:16 60.76009 21.49091 2608 ft 164 kts 181°
2026-04-28 12:17 60.74865 21.49089 2608 ft 164 kts 181°
2026-04-28 12:17 60.73738 21.48867 2609 ft 162 kts 201°
2026-04-28 12:17 60.72819 21.47739 2609 ft 151 kts 235°
2026-04-28 12:17 60.72335 21.45993 2608 ft 133 kts 270°
2026-04-28 12:18 60.72388 21.44281 2608 ft 113 kts 305°
2026-04-28 12:18 60.72870 21.43219 2609 ft 97 kts 340°
2026-04-28 12:18 60.73491 21.42675 2607 ft 99 kts 336°
2026-04-28 12:18 60.74046 21.41794 2608 ft 102 kts 329°
2026-04-28 12:19 60.74656 21.41171 2607 ft 97 kts 353°
2026-04-28 12:19 60.75328 21.41076 2606 ft 97 kts 358°
2026-04-28 12:19 60.75991 21.41039 2604 ft 96 kts 359°
2026-04-28 12:19 60.76662 21.41013 2609 ft 96 kts 359°
2026-04-28 12:20 60.77336 21.40992 2613 ft 97 kts 359°
2026-04-28 12:20 60.78008 21.40975 2604 ft 97 kts 360°
2026-04-28 12:20 60.78684 21.40961 2606 ft 97 kts 360°
2026-04-28 12:20 60.79355 21.40950 2606 ft 96 kts 360°
2026-04-28 12:21 60.80025 21.40942 2606 ft 97 kts 360°
2026-04-28 12:21 60.80697 21.40936 2610 ft 96 kts 359°
2026-04-28 12:21 60.81364 21.40931 2610 ft 96 kts 359°
2026-04-28 12:21 60.82035 21.40928 2601 ft 97 kts 360°
2026-04-28 12:22 60.82703 21.40924 2610 ft 95 kts 360°
2026-04-28 12:22 60.83356 21.40922 2605 ft 94 kts
2026-04-28 12:22 60.84010 21.40920 2602 ft 93 kts
2026-04-28 12:22 60.84660 21.40919 2604 ft 93 kts
2026-04-28 12:23 60.85307 21.40919 2603 ft 93 kts
2026-04-28 12:23 60.85956 21.40918 2605 ft 93 kts
2026-04-28 12:23 60.86596 21.40918 2601 ft 94 kts
2026-04-28 12:23 60.87251 21.40918 2606 ft 94 kts
2026-04-28 12:24 60.87909 21.40919 2600 ft 93 kts
2026-04-28 12:24 60.88559 21.40919 2607 ft 94 kts
2026-04-28 12:24 60.89212 21.40918 2604 ft 93 kts
2026-04-28 12:24 60.89858 21.40918 2599 ft 93 kts
2026-04-28 12:25 60.90513 21.40917 2601 ft 95 kts
2026-04-28 12:25 60.91171 21.40917 2601 ft 94 kts
2026-04-28 12:25 60.91823 21.40918 2605 ft 94 kts
2026-04-28 12:25 60.92475 21.40916 2606 ft 96 kts
2026-04-28 12:26 60.93140 21.40916 2600 ft 95 kts
2026-04-28 12:26 60.93808 21.40915 2602 ft 96 kts
2026-04-28 12:26 60.94468 21.40915 2597 ft 94 kts
2026-04-28 12:26 60.95121 21.40915 2597 ft 94 kts
2026-04-28 12:27 60.95776 21.40915 2598 ft 95 kts
2026-04-28 12:27 60.96434 21.40915 2615 ft 94 kts
2026-04-28 12:27 60.97093 21.40916 2610 ft 95 kts
2026-04-28 12:27 60.97758 21.40915 2611 ft 96 kts
2026-04-28 12:28 60.98417 21.40913 2611 ft 95 kts
2026-04-28 12:28 60.99076 21.40914 2611 ft 94 kts
2026-04-28 12:28 60.99725 21.40914 2608 ft 95 kts
2026-04-28 12:28 61.00378 21.40917 2609 ft 93 kts
2026-04-28 12:29 61.01669 21.40921 2611 ft 93 kts
2026-04-28 12:29 61.02316 21.40922 2612 ft 94 kts
2026-04-28 12:29 61.02979 21.40922 2612 ft 94 kts 360°
2026-04-28 12:30 61.03632 21.40921 2609 ft 93 kts 360°
2026-04-28 12:30 61.04281 21.40922 2611 ft 93 kts 360°
2026-04-28 12:30 61.04928 21.40922 2617 ft 93 kts
2026-04-28 12:30 61.05576 21.40922 2621 ft 93 kts 360°
2026-04-28 12:31 61.06220 21.40922 2614 ft 93 kts 360°
2026-04-28 12:31 61.06870 21.40922 2610 ft 94 kts 360°
2026-04-28 12:31 61.07528 21.40922 2609 ft 95 kts 360°
2026-04-28 12:31 61.08192 21.40921 2608 ft 96 kts 359°
2026-04-28 12:32 61.08857 21.40920 2607 ft 96 kts 360°
2026-04-28 12:32 61.09526 21.40919 2613 ft 96 kts 359°
2026-04-28 12:32 61.10190 21.40917 2611 ft 95 kts 360°
2026-04-28 12:32 61.10842 21.40917 2615 ft 95 kts 360°
2026-04-28 12:33 61.11501 21.40917 2611 ft 94 kts 360°
2026-04-28 12:33 61.12159 21.40917 2611 ft 95 kts
2026-04-28 12:33 61.12819 21.40918 2613 ft 95 kts
2026-04-28 12:33 61.13482 21.40918 2615 ft 95 kts
2026-04-28 12:34 61.14147 21.40918 2615 ft 96 kts
2026-04-28 12:34 61.14815 21.40918 2606 ft 96 kts
2026-04-28 12:34 61.15485 21.40919 2610 ft 96 kts
2026-04-28 12:34 61.16157 21.40919 2617 ft 97 kts
2026-04-28 12:35 61.16820 21.40919 2615 ft 96 kts
2026-04-28 12:35 61.17489 21.40920 2611 ft 96 kts
2026-04-28 12:35 61.18161 21.40921 2606 ft 96 kts
2026-04-28 12:35 61.18823 21.40918 2618 ft 91 kts 360°
2026-04-28 12:36 61.19366 21.40897 2619 ft 65 kts
2026-04-28 12:36 61.19735 21.40881 2610 ft 42 kts
2026-04-28 12:36 61.19966 21.40839 2608 ft 25 kts 359°
2026-04-28 12:36 61.20110 21.40795 2600 ft 20 kts 360°
2026-04-28 12:37 61.20251 21.40776 2609 ft 21 kts
2026-04-28 12:37 61.20394 21.40771 2601 ft 20 kts
2026-04-28 12:37 61.20535 21.40769 2603 ft 21 kts
2026-04-28 12:37 61.20679 21.40773 2603 ft 20 kts
2026-04-28 12:38 61.20820 21.40779 2605 ft 21 kts 359°
2026-04-28 12:38 61.20908 21.40431 2607 ft 45 kts 304°
2026-04-28 12:38 61.20768 21.39680 2603 ft 52 kts 293°
2026-04-28 12:38 61.20769 21.38969 2596 ft 61 kts 302°
2026-04-28 12:39 61.20789 21.38015 2605 ft 66 kts 296°
2026-04-28 12:39 61.20796 21.37062 2603 ft 66 kts 298°
2026-04-28 12:39 61.20801 21.36113 2603 ft 65 kts 298°
2026-04-28 12:39 61.20807 21.35165 2604 ft 66 kts 298°
2026-04-28 12:40 61.20811 21.34229 2602 ft 66 kts 298°
2026-04-28 12:40 61.20815 21.33270 2611 ft 66 kts 298°
2026-04-28 12:40 61.20743 21.32275 2611 ft 85 kts 266°
2026-04-28 12:40 61.20248 21.31465 2618 ft 96 kts 203°
2026-04-28 12:41 61.19517 21.31479 2621 ft 121 kts 168°
2026-04-28 12:41 61.18568 21.31723 2607 ft 153 kts 170°
2026-04-28 12:41 61.17447 21.31945 2620 ft 164 kts 172°
2026-04-28 12:41 61.16307 21.32112 2599 ft 170 kts 176°
2026-04-28 12:42 61.15126 21.32220 2626 ft 165 kts 176°
2026-04-28 12:42 61.13990 21.32301 2598 ft 165 kts 179°
2026-04-28 12:42 61.12838 21.32343 2607 ft 166 kts 179°
2026-04-28 12:42 61.11690 21.32369 2613 ft 165 kts 179°
2026-04-28 12:43 61.10541 21.32384 2607 ft 164 kts 180°
2026-04-28 12:43 61.09394 21.32393 2609 ft 165 kts 180°
2026-04-28 12:43 61.08248 21.32399 2611 ft 165 kts 180°
2026-04-28 12:43 61.07099 21.32402 2611 ft 164 kts 179°
2026-04-28 12:44 61.05961 21.32404 2614 ft 166 kts 179°
2026-04-28 12:44 61.04812 21.32405 2610 ft 166 kts 179°
2026-04-28 12:44 61.03659 21.32406 2610 ft 165 kts 179°
2026-04-28 12:44 61.02514 21.32406 2613 ft 165 kts 179°
2026-04-28 12:45 61.01365 21.32407 2612 ft 165 kts 180°
2026-04-28 12:45 61.00210 21.32408 2609 ft 166 kts 179°
2026-04-28 12:45 60.99054 21.32409 2612 ft 166 kts 179°
2026-04-28 12:45 60.97892 21.32410 2614 ft 167 kts 179°
2026-04-28 12:46 60.96729 21.32413 2610 ft 167 kts 179°
2026-04-28 12:46 60.95567 21.32413 2619 ft 167 kts 179°
2026-04-28 12:46 60.94399 21.32415 2614 ft 168 kts 179°
2026-04-28 12:46 60.93245 21.32414 2616 ft 167 kts 179°
2026-04-28 12:47 60.92083 21.32414 2620 ft 167 kts 180°
2026-04-28 12:47 60.90923 21.32413 2618 ft 167 kts 179°
2026-04-28 12:47 60.89760 21.32412 2618 ft 167 kts 179°
2026-04-28 12:47 60.88599 21.32412 2615 ft 167 kts 179°
2026-04-28 12:48 60.87439 21.32411 2617 ft 167 kts 179°
2026-04-28 12:48 60.86275 21.32409 2602 ft 168 kts 179°
2026-04-28 12:48 60.85110 21.32410 2598 ft 167 kts 180°
2026-04-28 12:48 60.83955 21.32410 2599 ft 167 kts 180°
2026-04-28 12:49 60.82794 21.32409 2598 ft 167 kts 180°
2026-04-28 12:49 60.81632 21.32410 2608 ft 165 kts 179°
2026-04-28 12:49 60.80481 21.32410 2605 ft 165 kts 179°
2026-04-28 12:49 60.79331 21.32410 2604 ft 166 kts 180°
2026-04-28 12:50 60.78178 21.32410 2606 ft 165 kts 180°
2026-04-28 12:50 60.77023 21.32410 2609 ft 166 kts 180°
2026-04-28 12:50 60.75869 21.32411 2604 ft 166 kts 179°
2026-04-28 12:50 60.74741 21.32418 2625 ft 154 kts 178°
2026-04-28 12:51 60.73773 21.32336 2619 ft 125 kts 200°
2026-04-28 12:51 60.73134 21.31598 2607 ft 89 kts 254°
2026-04-28 12:51 60.72979 21.30620 2606 ft 62 kts 303°
2026-04-28 12:51 60.73018 21.29761 2606 ft 60 kts 306°
2026-04-28 12:52 60.73058 21.28904 2606 ft 61 kts 304°
2026-04-28 12:52 60.73094 21.28043 2606 ft 61 kts 304°
2026-04-28 12:52 60.73125 21.27174 2610 ft 61 kts 303°
2026-04-28 12:52 60.73152 21.26303 2605 ft 62 kts 303°
2026-04-28 12:53 60.73175 21.25426 2606 ft 62 kts 303°
2026-04-28 12:53 60.73196 21.24560 2613 ft 62 kts 302°
2026-04-28 12:53 60.73323 21.23909 2603 ft 40 kts 347°
2026-04-28 12:53 60.73554 21.23987 2591 ft 63 kts 13°
2026-04-28 12:54 60.74290 21.24125 2601 ft 93 kts
2026-04-28 12:54 60.74950 21.24159 2607 ft 94 kts
2026-04-28 12:54 60.75612 21.24181 2607 ft 95 kts
2026-04-28 12:54 60.76275 21.24197 2604 ft 96 kts
2026-04-28 12:55 60.76942 21.24209 2608 ft 96 kts
2026-04-28 12:55 60.77607 21.24216 2610 ft 96 kts
2026-04-28 12:55 60.78051 21.24221 2620 ft 96 kts
2026-04-28 12:55 60.78719 21.24227 2617 ft 96 kts
2026-04-28 12:56 60.79386 21.24232 2619 ft 96 kts
2026-04-28 12:56 60.80053 21.24237 2623 ft 96 kts
2026-04-28 12:56 60.80724 21.24240 2619 ft 97 kts
2026-04-28 12:56 60.81399 21.24243 2619 ft 97 kts
2026-04-28 12:57 60.82075 21.24245 2620 ft 98 kts
2026-04-28 12:57 60.82749 21.24246 2618 ft 98 kts
2026-04-28 12:57 60.83431 21.24248 2618 ft 98 kts
2026-04-28 12:57 60.84108 21.24249 2620 ft 97 kts
2026-04-28 12:58 60.84781 21.24249 2620 ft 96 kts
2026-04-28 12:58 60.85432 21.24250 2626 ft 94 kts
2026-04-28 12:58 60.86094 21.24251 2616 ft 95 kts
2026-04-28 12:58 60.86754 21.24252 2616 ft 95 kts
2026-04-28 12:59 60.87418 21.24253 2615 ft 96 kts
2026-04-28 12:59 60.88083 21.24253 2618 ft 95 kts
2026-04-28 12:59 60.88749 21.24253 2617 ft 95 kts
2026-04-28 12:59 60.89411 21.24254 2615 ft 95 kts
2026-04-28 13:00 60.90076 21.24253 2615 ft 96 kts
2026-04-28 13:00 60.90743 21.24254 2619 ft 95 kts
2026-04-28 13:00 60.91406 21.24252 2619 ft 95 kts
2026-04-28 13:00 60.92075 21.24252 2618 ft 96 kts
2026-04-28 13:01 60.92736 21.24252 2619 ft 96 kts
2026-04-28 13:01 60.93401 21.24253 2617 ft 95 kts
2026-04-28 13:01 60.94064 21.24253 2618 ft 95 kts
2026-04-28 13:01 60.94729 21.24254 2618 ft 95 kts
2026-04-28 13:02 60.95394 21.24254 2618 ft 96 kts
2026-04-28 13:02 60.96061 21.24255 2616 ft 96 kts
2026-04-28 13:02 60.96727 21.24256 2618 ft 96 kts
2026-04-28 13:02 60.97394 21.24256 2612 ft 96 kts
2026-04-28 13:03 60.98059 21.24257 2612 ft 95 kts
2026-04-28 13:03 60.98724 21.24257 2610 ft 95 kts
2026-04-28 13:03 60.99386 21.24258 2614 ft 95 kts
2026-04-28 13:03 61.00040 21.24259 2614 ft 95 kts
2026-04-28 13:04 61.00709 21.24259 2611 ft 95 kts
2026-04-28 13:04 61.01361 21.24260 2610 ft 95 kts
2026-04-28 13:04 61.02020 21.24260 2611 ft 95 kts
2026-04-28 13:04 61.02680 21.24261 2612 ft 94 kts
2026-04-28 13:05 61.03335 21.24261 2616 ft 94 kts
2026-04-28 13:05 61.03988 21.24261 2612 ft 94 kts
2026-04-28 13:05 61.04640 21.24261 2610 ft 93 kts
2026-04-28 13:05 61.05291 21.24261 2610 ft 94 kts
2026-04-28 13:06 61.05947 21.24261 2612 ft 94 kts
2026-04-28 13:06 61.06605 21.24261 2613 ft 95 kts
2026-04-28 13:06 61.07265 21.24261 2614 ft 95 kts
2026-04-28 13:06 61.07928 21.24260 2614 ft 95 kts
2026-04-28 13:07 61.08591 21.24260 2614 ft 95 kts
2026-04-28 13:07 61.09247 21.24260 2611 ft 95 kts
2026-04-28 13:07 61.09911 21.24261 2607 ft 95 kts
2026-04-28 13:07 61.10574 21.24260 2610 ft 96 kts
2026-04-28 13:08 61.11239 21.24260 2613 ft 96 kts
2026-04-28 13:08 61.11904 21.24261 2612 ft 95 kts
2026-04-28 13:08 61.12566 21.24262 2611 ft 95 kts
2026-04-28 13:08 61.13225 21.24263 2608 ft 95 kts
2026-04-28 13:09 61.13883 21.24264 2615 ft 94 kts
2026-04-28 13:09 61.14539 21.24265 2619 ft 94 kts
2026-04-28 13:09 61.15199 21.24266 2622 ft 95 kts
2026-04-28 13:09 61.15860 21.24266 2630 ft 95 kts
2026-04-28 13:10 61.16520 21.24265 2624 ft 95 kts
2026-04-28 13:10 61.17171 21.24265 2623 ft 95 kts
2026-04-28 13:10 61.17828 21.24265 2623 ft 94 kts
2026-04-28 13:10 61.18485 21.24265 2623 ft 94 kts
2026-04-28 13:11 61.19142 21.24264 2626 ft 95 kts
2026-04-28 13:11 61.19786 21.24258 2645 ft 82 kts 360°
2026-04-28 13:11 61.20249 21.24234 2636 ft 53 kts
2026-04-28 13:11 61.20542 21.24209 2625 ft 35 kts 360°
2026-04-28 13:12 61.20790 21.24164 2620 ft 37 kts 359°
2026-04-28 13:12 61.20968 21.23661 2622 ft 63 kts 303°
2026-04-28 13:12 61.20958 21.22732 2623 ft 66 kts 297°
2026-04-28 13:12 61.20942 21.21783 2623 ft 66 kts 297°
2026-04-28 13:13 61.20928 21.20837 2625 ft 65 kts 298°
2026-04-28 13:13 61.20916 21.19894 2624 ft 65 kts 298°
2026-04-28 13:13 61.20905 21.18953 2623 ft 65 kts 298°
2026-04-28 13:13 61.20896 21.18014 2623 ft 65 kts 298°
2026-04-28 13:14 61.20889 21.17070 2621 ft 66 kts 299°
2026-04-28 13:14 61.20880 21.16121 2622 ft 68 kts 296°
2026-04-28 13:14 61.20599 21.15084 2622 ft 99 kts 237°
2026-04-28 13:14 61.19913 21.14594 2623 ft 110 kts 179°
2026-04-28 13:15 61.19162 21.14777 2626 ft 108 kts 165°
2026-04-28 13:15 61.18415 21.15010 2624 ft 109 kts 167°
2026-04-28 13:15 61.17623 21.15204 2614 ft 128 kts 171°
2026-04-28 13:15 61.16640 21.15366 2596 ft 158 kts 173°
2026-04-28 13:16 61.15492 21.15480 2621 ft 167 kts 174°
2026-04-28 13:16 61.14349 21.15570 2618 ft 165 kts 176°
2026-04-28 13:16 61.13195 21.15628 2622 ft 165 kts 177°
2026-04-28 13:16 61.12044 21.15666 2623 ft 165 kts 178°
2026-04-28 13:17 61.10888 21.15691 2623 ft 166 kts 178°
2026-04-28 13:17 61.09734 21.15707 2625 ft 167 kts 179°
2026-04-28 13:17 61.08573 21.15718 2625 ft 167 kts 179°
2026-04-28 13:17 61.07411 21.15724 2625 ft 167 kts 179°
2026-04-28 13:18 61.06249 21.15728 2626 ft 167 kts 179°
2026-04-28 13:18 61.05103 21.15730 2626 ft 166 kts 179°
2026-04-28 13:18 61.03940 21.15732 2625 ft 167 kts 179°
2026-04-28 13:18 61.02779 21.15733 2636 ft 167 kts 179°
2026-04-28 13:19 61.01616 21.15734 2636 ft 167 kts 179°
2026-04-28 13:19 61.00446 21.15734 2626 ft 168 kts 179°
2026-04-28 13:19 60.99271 21.15734 2618 ft 169 kts 179°
2026-04-28 13:19 60.98095 21.15735 2622 ft 169 kts 179°
2026-04-28 13:20 60.96916 21.15736 2621 ft 170 kts 179°
2026-04-28 13:20 60.95730 21.15736 2624 ft 171 kts 179°
2026-04-28 13:20 60.94541 21.15737 2617 ft 171 kts 179°
2026-04-28 13:20 60.93349 21.15737 2615 ft 170 kts 179°
2026-04-28 13:21 60.92182 21.15737 2613 ft 170 kts 180°
2026-04-28 13:21 60.90997 21.15737 2617 ft 170 kts 179°
2026-04-28 13:21 60.89814 21.15737 2619 ft 170 kts 179°
2026-04-28 13:21 60.88629 21.15737 2614 ft 170 kts 179°
2026-04-28 13:22 60.87449 21.15736 2622 ft 170 kts 179°
2026-04-28 13:22 60.86264 21.15736 2619 ft 170 kts 179°
2026-04-28 13:22 60.85084 21.15738 2617 ft 169 kts 179°
2026-04-28 13:22 60.83907 21.15738 2615 ft 169 kts 180°
2026-04-28 13:23 60.82730 21.15738 2619 ft 169 kts 179°
2026-04-28 13:23 60.81554 21.15737 2619 ft 170 kts 180°
2026-04-28 13:23 60.80374 21.15735 2618 ft 169 kts 180°
2026-04-28 13:23 60.79208 21.15735 2619 ft 170 kts 179°
2026-04-28 13:24 60.78017 21.15737 2619 ft 171 kts 179°
2026-04-28 13:24 60.76824 21.15738 2619 ft 171 kts 180°
2026-04-28 13:24 60.75669 21.15749 2636 ft 155 kts 179°
2026-04-28 13:24 60.74693 21.15785 2632 ft 127 kts 180°
2026-04-28 13:25 60.73888 21.15811 2623 ft 108 kts 181°
2026-04-28 13:25 60.73203 21.15364 2623 ft 99 kts 237°
2026-04-28 13:25 60.72917 21.14356 2624 ft 67 kts 297°
2026-04-28 13:25 60.72951 21.13490 2625 ft 60 kts 308°
2026-04-28 13:26 60.73000 21.12640 2625 ft 61 kts 307°
2026-04-28 13:26 60.73044 21.11778 2625 ft 61 kts 306°
2026-04-28 13:26 60.73083 21.10905 2625 ft 62 kts 305°
2026-04-28 13:26 60.73116 21.10022 2625 ft 62 kts 304°
2026-04-28 13:27 60.73145 21.09146 2625 ft 63 kts 304°
2026-04-28 13:27 60.73170 21.08254 2625 ft 63 kts 303°
2026-04-28 13:27 60.73219 21.07403 2623 ft 50 kts 323°
2026-04-28 13:27 60.73541 21.07253 2609 ft 67 kts 12°
2026-04-28 13:28 60.74087 21.07403 2617 ft 89 kts
2026-04-28 13:28 60.74731 21.07453 2621 ft 93 kts
2026-04-28 13:28 60.75388 21.07485 2617 ft 95 kts
2026-04-28 13:28 60.76053 21.07509 2617 ft 96 kts
2026-04-28 13:29 60.76719 21.07528 2625 ft 95 kts
2026-04-28 13:29 60.77383 21.07536 2622 ft 95 kts 360°
2026-04-28 13:29 60.77998 21.07013 2619 ft 103 kts 330°
2026-04-28 13:29 60.78454 21.05824 2360 ft 108 kts 317°
2026-04-28 13:30 60.78872 21.04549 1962 ft 107 kts 317°
2026-04-28 13:30 60.79291 21.03314 1555 ft 105 kts 318°
2026-04-28 13:30 60.79721 21.02119 1302 ft 105 kts 317°
2026-04-28 13:30 60.80105 21.00802 1201 ft 108 kts 313°
2026-04-28 13:31 60.81039 20.98556 1148 ft 102 kts 322°
2026-04-28 13:31 60.81518 20.97479 1140 ft 103 kts 321°
2026-04-28 13:31 60.81987 20.96411 1129 ft 102 kts 321°
2026-04-28 13:32 60.82467 20.95312 1130 ft 104 kts 321°
2026-04-28 13:32 60.82951 20.94190 1137 ft 105 kts 320°
2026-04-28 13:32 60.83436 20.93054 1141 ft 106 kts 320°
2026-04-28 13:32 60.83922 20.91912 1142 ft 107 kts 320°
2026-04-28 13:33 60.84408 20.90762 1139 ft 107 kts 320°
2026-04-28 13:33 60.84894 20.89608 1139 ft 107 kts 320°
2026-04-28 13:33 60.85379 20.88455 1140 ft 106 kts 320°
2026-04-28 13:33 60.85861 20.87305 1141 ft 106 kts 319°
2026-04-28 13:34 60.86344 20.86151 1147 ft 106 kts 319°
2026-04-28 13:34 60.86826 20.84999 1146 ft 106 kts 319°
2026-04-28 13:34 60.87300 20.83862 1144 ft 106 kts 319°
2026-04-28 13:34 60.87781 20.82710 1141 ft 107 kts 319°
2026-04-28 13:35 60.88262 20.81552 1142 ft 107 kts 319°
2026-04-28 13:35 60.88745 20.80394 1143 ft 107 kts 319°
2026-04-28 13:35 60.89227 20.79234 1141 ft 107 kts 319°
2026-04-28 13:35 60.89710 20.78072 1144 ft 107 kts 319°
2026-04-28 13:36 60.90191 20.76912 1143 ft 107 kts 319°
2026-04-28 13:36 60.90674 20.75749 1145 ft 107 kts 319°
2026-04-28 13:36 60.91156 20.74587 1143 ft 107 kts 319°
2026-04-28 13:36 60.91639 20.73422 1146 ft 107 kts 319°
2026-04-28 13:37 60.92122 20.72253 1137 ft 107 kts 319°
2026-04-28 13:37 60.92606 20.71086 1144 ft 107 kts 319°
2026-04-28 13:37 60.93090 20.69916 1143 ft 107 kts 319°
2026-04-28 13:37 60.93572 20.68749 1148 ft 107 kts 320°
2026-04-28 13:38 60.94054 20.67583 1147 ft 107 kts 320°
2026-04-28 13:38 60.94535 20.66418 1144 ft 107 kts 320°
2026-04-28 13:38 60.95014 20.65257 1143 ft 106 kts 320°
2026-04-28 13:38 60.95482 20.64122 1142 ft 106 kts 320°
2026-04-28 13:39 60.95951 20.62984 1141 ft 105 kts 320°
2026-04-28 13:39 60.96426 20.61833 1141 ft 105 kts 320°
2026-04-28 13:39 60.96900 20.60682 1141 ft 105 kts 319°
2026-04-28 13:39 60.97374 20.59532 1141 ft 106 kts 319°
2026-04-28 13:40 60.97849 20.58377 1141 ft 105 kts 319°
2026-04-28 13:40 60.98324 20.57224 1141 ft 106 kts 319°
2026-04-28 13:40 60.98800 20.56066 1142 ft 106 kts 319°
2026-04-28 13:40 60.99278 20.54904 1155 ft 106 kts 319°
2026-04-28 13:41 60.99756 20.53738 1155 ft 106 kts 319°
2026-04-28 13:41 61.00235 20.52572 1154 ft 107 kts 319°
2026-04-28 13:41 61.00713 20.51407 1154 ft 106 kts 319°
2026-04-28 13:41 61.01184 20.50257 1154 ft 106 kts 319°
2026-04-28 13:42 61.01661 20.49093 1153 ft 106 kts 319°
2026-04-28 13:42 61.02137 20.47933 1154 ft 106 kts 319°
2026-04-28 13:42 61.02613 20.46756 980 ft 108 kts 317°
2026-04-28 13:42 61.03071 20.45498 766 ft 113 kts 308°
2026-04-28 13:43 61.03304 20.43896 583 ft 122 kts 288°
2026-04-28 13:43 61.03366 20.42759 466 ft 114 kts 297°
2026-04-28 13:43 61.03904 20.42169 389 ft 96 kts 20°
2026-04-28 13:43 61.04416 20.42730 506 ft 68 kts 341°
2026-04-28 13:44 61.04568 20.42060 650 ft 62 kts 253°
2026-04-28 13:44 61.04360 20.41461 632 ft 25 kts 264°
2026-04-28 13:44 61.04267 20.41391 516 ft 9 kts 270°
2026-04-28 13:44 61.04226 20.41330 313 ft 8 kts 270°
2026-04-28 13:45 61.04201 20.41250 213 ft 3 kts 272°
2026-04-28 13:45 61.04219 20.41263 151 ft 6 kts 274°
2026-04-28 13:45 61.04266 20.41347 114 ft 14 kts 276°
2026-04-28 13:45 61.04392 20.41493 118 ft 28 kts 286°
2026-04-28 13:46 61.04592 20.41764 121 ft 40 kts 354°
2026-04-28 13:46 61.04736 20.42139 167 ft 14 kts 324°
2026-04-28 13:46 61.04781 20.42104 114 ft 0 kts 302°
2026-04-28 13:46 61.04776 20.42103 53 ft 0 kts 302°
2026-04-28 13:47 61.04775 20.42103 71 ft 0 kts 302°
2026-04-28 13:47 61.04799 20.42034 114 ft 28 kts 308°
2026-04-28 13:47 61.05128 20.41866 89 ft 81 kts
2026-04-28 13:47 61.05340 20.43190 93 ft 124 kts 82°
2026-04-28 13:48 61.04744 20.44682 85 ft 141 kts 133°
2026-04-28 13:48 61.04072 20.46002 235 ft 129 kts 115°
2026-04-28 13:48 61.03609 20.47599 258 ft 139 kts 111°
2026-04-28 13:48 61.03087 20.49428 380 ft 151 kts 111°
2026-04-28 13:49 61.02591 20.51243 418 ft 142 kts 111°
2026-04-28 13:49 61.02113 20.53053 431 ft 145 kts 109°
2026-04-28 13:49 61.01638 20.54891 440 ft 145 kts 108°
2026-04-28 13:49 61.01166 20.56744 442 ft 146 kts 107°
2026-04-28 13:50 61.00704 20.58574 434 ft 146 kts 109°
2026-04-28 13:50 61.00238 20.60423 433 ft 145 kts 109°
2026-04-28 13:50 60.99774 20.62265 430 ft 145 kts 109°
2026-04-28 13:50 60.99311 20.64108 431 ft 145 kts 108°
2026-04-28 13:51 60.98850 20.65942 432 ft 144 kts 108°
2026-04-28 13:51 60.98392 20.67769 430 ft 144 kts 107°
2026-04-28 13:51 60.97930 20.69610 432 ft 145 kts 108°
2026-04-28 13:51 60.97465 20.71468 432 ft 145 kts 108°
2026-04-28 13:52 60.97000 20.73321 430 ft 146 kts 108°
2026-04-28 13:52 60.96542 20.75147 432 ft 144 kts 108°
2026-04-28 13:52 60.96080 20.76989 430 ft 145 kts 108°
2026-04-28 13:52 60.95614 20.78848 431 ft 147 kts 106°
2026-04-28 13:53 60.95145 20.80716 431 ft 148 kts 107°
2026-04-28 13:53 60.94670 20.82604 431 ft 149 kts 108°
2026-04-28 13:53 60.94195 20.84488 433 ft 148 kts 108°
2026-04-28 13:53 60.93724 20.86355 431 ft 147 kts 106°
2026-04-28 13:54 60.93251 20.88228 431 ft 148 kts 108°
2026-04-28 13:54 60.92780 20.90091 431 ft 146 kts 110°
2026-04-28 13:54 60.92309 20.91948 431 ft 146 kts 109°
2026-04-28 13:54 60.91841 20.93794 432 ft 144 kts 108°
2026-04-28 13:55 60.91376 20.95625 432 ft 146 kts 108°
2026-04-28 13:55 60.90905 20.97481 430 ft 146 kts 108°
2026-04-28 13:55 60.90438 20.99323 430 ft 146 kts 108°
2026-04-28 13:55 60.89971 21.01162 431 ft 145 kts 108°
2026-04-28 13:56 60.89505 21.03001 430 ft 145 kts 109°
2026-04-28 13:56 60.89033 21.04859 433 ft 149 kts 107°
2026-04-28 13:56 60.88557 21.06735 420 ft 150 kts 108°
2026-04-28 13:56 60.88075 21.08631 419 ft 151 kts 106°
2026-04-28 13:57 60.87589 21.10538 424 ft 149 kts 106°
2026-04-28 13:57 60.87109 21.12416 417 ft 150 kts 106°
2026-04-28 13:57 60.86627 21.14301 419 ft 148 kts 109°
2026-04-28 13:57 60.86150 21.16168 414 ft 149 kts 108°
2026-04-28 13:58 60.85666 21.18059 419 ft 151 kts 107°
2026-04-28 13:58 60.85181 21.19957 417 ft 151 kts 106°
2026-04-28 13:58 60.84693 21.21880 423 ft 152 kts 107°
2026-04-28 13:58 60.84204 21.23802 414 ft 150 kts 109°
2026-04-28 13:59 60.83718 21.25684 417 ft 150 kts 107°
2026-04-28 13:59 60.83191 21.27518 406 ft 157 kts 119°
2026-04-28 13:59 60.82351 21.29082 308 ft 167 kts 141°
2026-04-28 13:59 60.81424 21.30409 378 ft 158 kts 140°
2026-04-28 14:00 60.80643 21.31708 477 ft 127 kts 131°
2026-04-28 14:00 60.80091 21.32773 558 ft 96 kts 132°
2026-04-28 14:00 60.79663 21.33474 582 ft 60 kts 152°
2026-04-28 14:00 60.79416 21.33739 269 ft 29 kts 108°
2026-04-28 14:01 60.79330 21.33846 196 ft 10 kts 25°
2026-04-28 14:01 60.79364 21.33878 113 ft 9 kts 20°
2026-04-28 14:01 60.79402 21.33936 38 ft 6 kts 22°
2026-04-28 14:01 60.79418 21.33967 9 ft 2 kts 15°
2026-04-28 14:02 60.79418 21.33966 8 ft 0 kts 24°
2026-04-28 14:02 60.79411 21.33980 28 ft 6 kts 21°
2026-04-28 14:02 60.79334 21.33937 161 ft 13 kts 26°
2026-04-28 14:02 60.79367 21.34133 335 ft 44 kts 56°
2026-04-28 14:03 60.79156 21.35164 419 ft 103 kts 111°
2026-04-28 14:03 60.78723 21.36614 501 ft 132 kts 112°
2026-04-28 14:03 60.78244 21.38328 512 ft 142 kts 100°
2026-04-28 14:03 60.78077 21.40315 613 ft 137 kts 78°
2026-04-28 14:04 60.78043 21.42242 709 ft 135 kts 81°
2026-04-28 14:04 60.77936 21.44152 779 ft 135 kts 86°
2026-04-28 14:04 60.77741 21.46008 878 ft 134 kts 91°
2026-04-28 14:04 60.77474 21.47844 995 ft 136 kts 94°
2026-04-28 14:05 60.77150 21.49686 1106 ft 139 kts 97°
2026-04-28 14:05 60.76785 21.51519 1123 ft 142 kts 99°
2026-04-28 14:05 60.76381 21.53386 1104 ft 144 kts 101°
2026-04-28 14:05 60.75952 21.55245 1101 ft 145 kts 103°
2026-04-28 14:06 60.75502 21.57122 1101 ft 148 kts 104°
2026-04-28 14:06 60.75036 21.59011 1103 ft 148 kts 105°
2026-04-28 14:06 60.74562 21.60893 1100 ft 148 kts 105°
2026-04-28 14:06 60.74083 21.62765 1103 ft 148 kts 105°
2026-04-28 14:07 60.73603 21.64628 1137 ft 148 kts 108°
2026-04-28 14:07 60.73119 21.66499 1117 ft 149 kts 109°
2026-04-28 14:07 60.72636 21.68357 1110 ft 149 kts 108°
2026-04-28 14:07 60.72150 21.70218 1102 ft 148 kts 108°
2026-04-28 14:08 60.71662 21.72089 1097 ft 148 kts 109°
2026-04-28 14:08 60.71179 21.73933 1095 ft 150 kts 109°
2026-04-28 14:08 60.70684 21.75833 1089 ft 152 kts 109°
2026-04-28 14:08 60.70185 21.77737 1071 ft 152 kts 108°
2026-04-28 14:09 60.69681 21.79658 1070 ft 153 kts 108°
2026-04-28 14:09 60.69180 21.81563 1066 ft 152 kts 109°
2026-04-28 14:09 60.68681 21.83461 1065 ft 152 kts 108°
2026-04-28 14:09 60.68181 21.85355 1062 ft 151 kts 108°
2026-04-28 14:10 60.67678 21.87255 1060 ft 151 kts 108°
2026-04-28 14:10 60.67181 21.89129 1057 ft 150 kts 108°
2026-04-28 14:10 60.66687 21.90994 1055 ft 149 kts 108°
2026-04-28 14:10 60.66195 21.92854 1054 ft 148 kts 108°
2026-04-28 14:11 60.65705 21.94702 1052 ft 148 kts 109°
2026-04-28 14:11 60.65217 21.96541 1050 ft 148 kts 109°
2026-04-28 14:11 60.64730 21.98382 1048 ft 147 kts 108°
2026-04-28 14:11 60.64239 22.00236 1041 ft 149 kts 108°
2026-04-28 14:12 60.63746 22.02093 1038 ft 148 kts 109°
2026-04-28 14:12 60.63249 22.03941 1034 ft 149 kts 111°
2026-04-28 14:12 60.62599 22.05596 1034 ft 154 kts 126°
2026-04-28 14:12 60.61831 22.07148 1032 ft 154 kts 130°
2026-04-28 14:13 60.61060 22.08606 1033 ft 154 kts 131°
2026-04-28 14:13 60.60274 22.10062 1032 ft 155 kts 132°
2026-04-28 14:13 60.59467 22.11540 1031 ft 156 kts 133°
2026-04-28 14:13 60.58656 22.13019 1028 ft 157 kts 133°
2026-04-28 14:14 60.57840 22.14504 1027 ft 158 kts 133°
2026-04-28 14:14 60.57019 22.15993 1026 ft 159 kts 132°
2026-04-28 14:14 60.56197 22.17480 1025 ft 157 kts 133°
2026-04-28 14:14 60.55396 22.18928 1027 ft 155 kts 132°
2026-04-28 14:15 60.54587 22.20345 1030 ft 149 kts 134°
2026-04-28 14:15 60.53825 22.21648 1039 ft 136 kts 134°
2026-04-28 14:15 60.53151 22.22791 1088 ft 116 kts 133°
2026-04-28 14:15 60.52579 22.23768 1029 ft 101 kts 131°
2026-04-28 14:16 60.52073 22.24681 963 ft 94 kts 127°
2026-04-28 14:16 60.51646 22.25557 947 ft 80 kts 120°
2026-04-28 14:16 60.51323 22.26348 921 ft 65 kts 104°
2026-04-28 14:16 60.51164 22.27077 886 ft 49 kts 76°
2026-04-28 14:17 60.51135 22.27634 744 ft 33 kts 52°
2026-04-28 14:17 60.51163 22.28055 593 ft 26 kts 38°
2026-04-28 14:17 60.51207 22.28313 441 ft 13 kts 40°
2026-04-28 14:17 60.51217 22.28448 273 ft 8 kts 42°
2026-04-28 14:18 60.51238 22.28535 181 ft 4 kts 42°
2026-04-28 14:18 60.51243 22.28551 156 ft 2 kts 41°
2026-04-28 14:18 60.51244 22.28553 150 ft 0 kts 44°